Simultaneous Nadir Overpasses (SNOs) Predictions

Prediction of SNOs between LANDSAT-8 and NOAA-19 Satellite Orbit:

Table of predicted SNOs for the next 14.0 days since TLE Epoch: 2/12/2015
Index Date (LANDSAT-8) Time (LANDSAT-8) Lat,Lon (LANDSAT-8) SZA (LANDSAT-8 ) Date (NOAA-19) Time (NOAA-19) Lat,Lon (NOAA-19) SZA (NOAA-19 ) Distance(km) Time Diff (sec)
1 02/13/2015 09:07:09 72.82, 43.85 86.16 02/13/2015 09:06:27 72.79, 43.87 86.13 2.98 42
2 02/13/2015 09:56:39 -72.70,-148.75 93.98 02/13/2015 09:57:20 -72.70,-148.66 93.98 2.93 41
3 02/15/2015 13:51:17 73.18, -26.52 85.76 02/15/2015 13:50:07 73.26, -28.03 85.88 49.54 70
4 02/15/2015 14:40:52 -72.79, 140.36 94.64 02/15/2015 14:40:52 -72.77, 140.35 94.66 2.73 0
5 02/17/2015 19:25:06 -72.81, 69.33 95.38 02/17/2015 19:24:24 -72.84, 69.36 95.35 3.12 42
6 02/17/2015 20:14:33 72.71,-123.21 84.52 02/17/2015 20:15:29 72.70,-123.13 84.50 3.05 56
7 02/20/2015 00:09:13 -73.18, -1.01 95.80 02/20/2015 00:08:02 -73.21, -2.31 95.75 41.92 71
8 02/20/2015 00:58:46 72.76, 165.82 83.79 02/20/2015 00:59:01 72.79, 165.84 83.81 2.70 15
9 02/22/2015 05:42:58 72.84, 94.92 83.07 02/22/2015 05:42:32 72.83, 94.91 83.06 1.55 26
10 02/22/2015 06:32:28 -72.73, -97.67 97.06 02/22/2015 06:33:26 -72.74, -97.63 97.05 2.08 58
11 02/24/2015 10:27:10 72.90, 23.97 82.32 02/24/2015 10:26:03 72.88, 23.96 82.30 2.65 67
12 02/24/2015 11:16:40 -72.78,-168.62 97.81 02/24/2015 11:16:57 -72.77,-168.54 97.83 3.17 17
